| time (UTC) | temp C | wind direction | speed KPH | gust KPH | rain 1hr cm | rain 24hr cm | rain mn cm | humidity % | barometer mb |
| 20260505010541 | 20 | 0.0 | 0.0 | 0.00 | 0.00 | 0.00 | 42 | 1009.5 | |
| 20260505010040 | 20 | 0.0 | 0.0 | 0.00 | 0.00 | 0.00 | 42 | 1009.6 | |
| 20260505005539 | 20 | 0.0 | 0.0 | 0.00 | 0.00 | 0.00 | 42 | 1009.4 | |
| 20260505005039 | 20 | 0.0 | 0.0 | 0.00 | 0.00 | 0.00 | 42 | 1009.4 | |
| 20260505004540 | 20 | 0.0 | 0.0 | 0.00 | 0.00 | 0.00 | 41 | 1009.3 | |
| 20260505004034 | 20 | 0.0 | 0.0 | 0.00 | 0.00 | 0.00 | 41 | 1009.3 | |
| 20260505003533 | 20 | 0.0 | 0.0 | 0.00 | 0.00 | 0.00 | 41 | 1009.3 | |
| 20260505003032 | 20 | 0.0 | 0.0 | 0.00 | 0.00 | 0.00 | 40 | 1009.4 | |
| 20260505002530 | 21 | 0.0 | 0.0 | 0.00 | 0.00 | 0.00 | 40 | 1009.5 | |
| 20260505002031 | 21 | 0.0 | 0.0 | 0.00 | 0.00 | 0.00 | 39 | 1009.4 | |
| 20260505001528 | 21 | 0.0 | 0.0 | 0.00 | 0.00 | 0.00 | 38 | 1009.4 | |
| 20260505001025 | 21 | 0.0 | 0.0 | 0.00 | 0.00 | 0.00 | 38 | 1009.2 | |
| 20260505000525 | 21 | 0.0 | 0.0 | 0.00 | 0.00 | 0.00 | 37 | 1009.3 | |
| 20260505000029 | 21 | 0.0 | 0.0 | 0.00 | 0.00 | 0.00 | 36 | 1009.3 | |
| 20260504235521 | 22 | 0.0 | 0.0 | 0.00 | 0.00 | 0.00 | 36 | 1009.2 | |
| 20260504235020 | 22 | 0.0 | 0.0 | 0.00 | 0.00 | 0.00 | 35 | 1009.2 | |
| 20260504234519 | 22 | 0.0 | 0.0 | 0.00 | 0.00 | 0.00 | 34 | 1009.3 | |
| 20260504234016 | 22 | 0.0 | 0.0 | 0.00 | 0.00 | 0.00 | 34 | 1009.4 | |
| 20260504233515 | 22 | 0.0 | 0.0 | 0.00 | 0.00 | 0.00 | 33 | 1009.2 | |
| 20260504233014 | 22 | 0.0 | 0.0 | 0.00 | 0.00 | 0.00 | 32 | 1009.3 | |
| 20260504232513 | 23 | 0.0 | 0.0 | 0.00 | 0.00 | 0.00 | 32 | 1009.2 | |
| 20260504232011 | 23 | 0.0 | 0.0 | 0.00 | 0.00 | 0.00 | 31 | 1009.3 | |
| 20260504231509 | 23 | 0.0 | 0.0 | 0.00 | 0.00 | 0.00 | 31 | 1009.2 | |
| 20260504231008 | 23 | 0.0 | 0.0 | 0.00 | 0.00 | 0.00 | 31 | 1009.2 | |
| 20260504230506 | 23 | 0.0 | 0.0 | 0.00 | 0.00 | 0.00 | 31 | 1009.4 | |
| 20260504230011 | 24 | 0.0 | 0.0 | 0.00 | 0.00 | 0.00 | 31 | 1009.4 | |
| 20260504225505 | 24 | 0.0 | 0.0 | 0.00 | 0.00 | 0.00 | 31 | 1009.3 | |
| 20260504225002 | 24 | 0.0 | 0.0 | 0.00 | 0.00 | 0.00 | 31 | 1009.2 | |
| 20260504224501 | 25 | 0.0 | 0.0 | 0.00 | 0.00 | 0.00 | 31 | 1009.2 | |
| 20260504224100 | 25 | 0.0 | 0.0 | 0.00 | 0.00 | 0.00 | 30 | 1009.1 | |
| 20260504223558 | 25 | 0.0 | 0.0 | 0.00 | 0.00 | 0.00 | 29 | 1009.0 | |
| 20260504223057 | 25 | 0.0 | 0.0 | 0.00 | 0.00 | 0.00 | 29 | 1009.1 | |
| 20260504222556 | 25 | 0.0 | 0.0 | 0.00 | 0.00 | 0.00 | 28 | 1009.1 | |
| 20260504222053 | 25 | 0.0 | 0.0 | 0.00 | 0.00 | 0.00 | 28 | 1009.1 | |
| 20260504221555 | 26 | 0.0 | 0.0 | 0.00 | 0.00 | 0.00 | 28 | 1009.1 | |
| 20260504221052 | 26 | 0.0 | 0.0 | 0.00 | 0.00 | 0.00 | 27 | 1009.2 | |
| 20260504220551 | 26 | 0.0 | 0.0 | 0.00 | 0.00 | 0.00 | 27 | 1009.0 | |
| 20260504220048 | 26 | 0.0 | 0.0 | 0.00 | 0.00 | 0.00 | 28 | 1009.0 | |
| 20260504215547 | 26 | 0.0 | 0.0 | 0.00 | 0.00 | 0.00 | 27 | 1009.1 | |
| 20260504215045 | 26 | 0.0 | 0.0 | 0.00 | 0.00 | 0.00 | 27 | 1009.1 | |
| 20260504214544 | 26 | 0.0 | 0.0 | 0.00 | 0.00 | 0.00 | 27 | 1009.0 | |
| 20260504214042 | 27 | 0.0 | 0.0 | 0.00 | 0.00 | 0.00 | 26 | 1009.0 | |
| 20260504213541 | 27 | 0.0 | 0.0 | 0.00 | 0.00 | 0.00 | 26 | 1009.1 | |
| 20260504213055 | 27 | 0.0 | 0.0 | 0.00 | 0.00 | 0.00 | 25 | 1009.0 | |
| 20260504212538 | 27 | 0.0 | 0.0 | 0.00 | 0.00 | 0.00 | 25 | 1009.0 | |
| 20260504212040 | 27 | 0.0 | 0.0 | 0.00 | 0.00 | 0.00 | 24 | 1009.0 | |
| 20260504211538 | 27 | 0.0 | 0.0 | 0.00 | 0.00 | 0.00 | 22 | 1009.0 | |
| 20260504211034 | 27 | 0.0 | 0.0 | 0.00 | 0.00 | 0.00 | 21 | 1009.0 | |
| 20260504210534 | 27 | 0.0 | 0.0 | 0.00 | 0.00 | 0.00 | 22 | 1008.9 | |
| 20260504210031 | 27 | 0.0 | 0.0 | 0.00 | 0.00 | 0.00 | 22 | 1009.0 | |
| 20260504205529 | 27 | 0.0 | 0.0 | 0.00 | 0.00 | 0.00 | 22 | 1008.9 | |
| 20260504205027 | 27 | 0.0 | 0.0 | 0.00 | 0.00 | 0.00 | 21 | 1009.0 | |
| 20260504204529 | 27 | 0.0 | 0.0 | 0.00 | 0.00 | 0.00 | 22 | 1009.2 | |
| 20260504204025 | 27 | 0.0 | 0.0 | 0.00 | 0.00 | 0.00 | 23 | 1009.4 | |
| 20260504203524 | 27 | 0.0 | 0.0 | 0.00 | 0.00 | 0.00 | 21 | 1009.4 | |
| 20260504203022 | 27 | 0.0 | 0.0 | 0.00 | 0.00 | 0.00 | 22 | 1009.5 | |
| 20260504202522 | 27 | 0.0 | 0.0 | 0.00 | 0.00 | 0.00 | 23 | 1009.4 | |
| 20260504202019 | 27 | 0.0 | 0.0 | 0.00 | 0.00 | 0.00 | 23 | 1009.5 | |
| 20260504201524 | 27 | 0.0 | 0.0 | 0.00 | 0.00 | 0.00 | 22 | 1009.4 | |
| 20260504201020 | 27 | 0.0 | 0.0 | 0.00 | 0.00 | 0.00 | 24 | 1009.6 | |
| 20260504200516 | 26 | 0.0 | 0.0 | 0.00 | 0.00 | 0.00 | 24 | 1009.6 | |
| 20260504200016 | 26 | 0.0 | 0.0 | 0.00 | 0.00 | 0.00 | 24 | 1009.7 | |
| 20260504195511 | 26 | 0.0 | 0.0 | 0.00 | 0.00 | 0.00 | 24 | 1009.8 | |
| 20260504195010 | 26 | 0.0 | 0.0 | 0.00 | 0.00 | 0.00 | 22 | 1009.9 | |
| 20260504194511 | 26 | 0.0 | 0.0 | 0.00 | 0.00 | 0.00 | 23 | 1010.0 | |
| 20260504194008 | 26 | 0.0 | 0.0 | 0.00 | 0.00 | 0.00 | 24 | 1010.1 | |
| 20260504193506 | 26 | 0.0 | 0.0 | 0.00 | 0.00 | 0.00 | 22 | 1010.4 | |
| 20260504193005 | 26 | 0.0 | 0.0 | 0.00 | 0.00 | 0.00 | 24 | 1010.4 | |
| 20260504192503 | 26 | 0.0 | 0.0 | 0.00 | 0.00 | 0.00 | 24 | 1010.4 | |
| 20260504192002 | 26 | 0.0 | 0.0 | 0.00 | 0.00 | 0.00 | 24 | 1010.4 | |
| 20260504191501 | 26 | 0.0 | 0.0 | 0.00 | 0.00 | 0.00 | 25 | 1010.6 | |
| 20260504191101 | 26 | 0.0 | 0.0 | 0.00 | 0.00 | 0.00 | 26 | 1010.7 | |
| 20260504190601 | 26 | 0.0 | 0.0 | 0.00 | 0.00 | 0.00 | 24 | 1010.6 | |
| 20260504190115 | 26 | 0.0 | 0.0 | 0.00 | 0.00 | 0.00 | 23 | 1010.7 | |
| 20260504185554 | 26 | 0.0 | 0.0 | 0.00 | 0.00 | 0.00 | 26 | 1010.7 | |
| 20260504185053 | 26 | 0.0 | 0.0 | 0.00 | 0.00 | 0.00 | 24 | 1010.8 | |
| 20260504184600 | 26 | 0.0 | 0.0 | 0.00 | 0.00 | 0.00 | 25 | 1010.8 | |
| 20260504184051 | 26 | 0.0 | 0.0 | 0.00 | 0.00 | 0.00 | 23 | 1010.9 | |
| 20260504183554 | 26 | 0.0 | 0.0 | 0.00 | 0.00 | 0.00 | 23 | 1011.0 | |
| 20260504183048 | 26 | 0.0 | 0.0 | 0.00 | 0.00 | 0.00 | 25 | 1011.0 | |
| 20260504182550 | 26 | 0.0 | 0.0 | 0.00 | 0.00 | 0.00 | 23 | 1011.1 | |
| 20260504182046 | 26 | 0.0 | 0.0 | 0.00 | 0.00 | 0.00 | 23 | 1011.1 | |
| 20260504181545 | 26 | 0.0 | 0.0 | 0.00 | 0.00 | 0.00 | 22 | 1011.1 | |
| 20260504181042 | 26 | 0.0 | 0.0 | 0.00 | 0.00 | 0.00 | 23 | 1011.2 | |
| 20260504180544 | 26 | 0.0 | 0.0 | 0.00 | 0.00 | 0.00 | 23 | 1011.1 | |
| 20260504180039 | 25 | 0.0 | 0.0 | 0.00 | 0.00 | 0.00 | 23 | 1011.2 | |
| 20260504175537 | 25 | 0.0 | 0.0 | 0.00 | 0.00 | 0.00 | 23 | 1011.4 | |
| 20260504175040 | 25 | 0.0 | 0.0 | 0.00 | 0.00 | 0.00 | 24 | 1011.6 | |
| 20260504174535 | 25 | 0.0 | 0.0 | 0.00 | 0.00 | 0.00 | 24 | 1011.6 | |
| 20260504174033 | 25 | 0.0 | 0.0 | 0.00 | 0.00 | 0.00 | 26 | 1011.7 | |
| 20260504173532 | 25 | 0.0 | 0.0 | 0.00 | 0.00 | 0.00 | 25 | 1011.8 | |
| 20260504173037 | 25 | 0.0 | 0.0 | 0.00 | 0.00 | 0.00 | 25 | 1011.8 | |
| 20260504172529 | 24 | 0.0 | 0.0 | 0.00 | 0.00 | 0.00 | 26 | 1011.9 | |
| 20260504172027 | 24 | 0.0 | 0.0 | 0.00 | 0.00 | 0.00 | 24 | 1011.9 | |
| 20260504171526 | 24 | 0.0 | 0.0 | 0.00 | 0.00 | 0.00 | 24 | 1012.1 | |
| 20260504171028 | 24 | 0.0 | 0.0 | 0.00 | 0.00 | 0.00 | 25 | 1012.1 | |
| 20260504170523 | 24 | 0.0 | 0.0 | 0.00 | 0.00 | 0.00 | 24 | 1012.1 | |
| 20260504151049 | 21 | 0.0 | 0.0 | 0.00 | 0.00 | 0.00 | 27 | 1013.4 | |
| 20260504150549 | 21 | 0.0 | 0.0 | 0.00 | 0.00 | 0.00 | 28 | 1013.5 | |
| 20260504141032 | 18 | 0.0 | 0.0 | 0.00 | 0.00 | 0.00 | 36 | 1013.6 | |
| 20260504140531 | 18 | 0.0 | 0.0 | 0.00 | 0.00 | 0.00 | 37 | 1013.7 | |
| 20260504130513 | 15 | 0.0 | 0.0 | 0.00 | 0.00 | 0.00 | 45 | 1014.0 | |
| 20260504110538 | 10 | 0.0 | 0.0 | 0.00 | 0.00 | 0.00 | 57 | 1014.7 | |
| 20260504100521 | 10 | 0.0 | 0.0 | 0.00 | 0.00 | 0.00 | 56 | 1014.6 | |
| 20260504081551 | 10 | 0.0 | 0.0 | 0.00 | 0.00 | 0.00 | 52 | 1015.2 | |
| 20260504081047 | 10 | 0.0 | 0.0 | 0.00 | 0.00 | 0.00 | 52 | 1015.1 | |
| 20260504080548 | 10 | 0.0 | 0.0 | 0.00 | 0.00 | 0.00 | 52 | 1015.1 | |
| 20260504050554 | 10 | 0.0 | 0.0 | 0.00 | 0.00 | 0.00 | 47 | 1015.2 | |
| 20260504045553 | 9 | 0.0 | 0.0 | 0.00 | 0.00 | 0.00 | 47 | 1015.4 | |
| 20260504045049 | 9 | 0.0 | 0.0 | 0.00 | 0.00 | 0.00 | 48 | 1015.4 | |
| 20260504044559 | 9 | 0.0 | 0.0 | 0.00 | 0.00 | 0.00 | 48 | 1015.3 | |
| 20260504044047 | 9 | 0.0 | 0.0 | 0.00 | 0.00 | 0.00 | 48 | 1015.3 | |
| 20260504043545 | 8 | 0.0 | 0.0 | 0.00 | 0.00 | 0.00 | 49 | 1015.3 | |
| 20260504043045 | 8 | 0.0 | 0.0 | 0.00 | 0.00 | 0.00 | 49 | 1015.3 | |
| 20260504042542 | 8 | 0.0 | 0.0 | 0.00 | 0.00 | 0.00 | 49 | 1015.3 | |
| 20260504042041 | 8 | 0.0 | 0.0 | 0.00 | 0.00 | 0.00 | 50 | 1015.2 | |
| 20260504041539 | 8 | 0.0 | 0.0 | 0.00 | 0.00 | 0.00 | 50 | 1015.2 | |
| 20260504041038 | 8 | 0.0 | 0.0 | 0.00 | 0.00 | 0.00 | 51 | 1015.2 | |
| 20260504040537 | 8 | 0.0 | 0.0 | 0.00 | 0.00 | 0.00 | 51 | 1015.2 | |
| 20260504040035 | 8 | 0.0 | 0.0 | 0.00 | 0.00 | 0.00 | 51 | 1015.2 | |
| 20260504035534 | 8 | 0.0 | 0.0 | 0.00 | 0.00 | 0.00 | 52 | 1015.3 | |
| 20260504035032 | 8 | 0.0 | 0.0 | 0.00 | 0.00 | 0.00 | 52 | 1015.3 | |
| 20260504034539 | 8 | 0.0 | 0.0 | 0.00 | 0.00 | 0.00 | 51 | 1015.1 | |
| 20260504034030 | 8 | 0.0 | 0.0 | 0.00 | 0.00 | 0.00 | 50 | 1015.1 | |
| 20260504033528 | 8 | 0.0 | 0.0 | 0.00 | 0.00 | 0.00 | 48 | 1015.1 | |
| 20260504033037 | 8 | 0.0 | 0.0 | 0.00 | 0.00 | 0.00 | 48 | 1015.0 | |
| 20260504032525 | 9 | 0.0 | 0.0 | 0.00 | 0.00 | 0.00 | 48 | 1014.9 | |
| 20260504032026 | 9 | 0.0 | 0.0 | 0.00 | 0.00 | 0.00 | 48 | 1014.9 | |
| 20260504031524 | 9 | 0.0 | 0.0 | 0.00 | 0.00 | 0.00 | 47 | 1014.8 | |
| 20260504031020 | 9 | 0.0 | 0.0 | 0.00 | 0.00 | 0.00 | 47 | 1014.5 | |
| 20260504030519 | 9 | 0.0 | 0.0 | 0.00 | 0.00 | 0.00 | 46 | 1014.6 | |
| 20260504030017 | 10 | 0.0 | 0.0 | 0.00 | 0.00 | 0.00 | 45 | 1014.8 | |
| 20260504025516 | 10 | 0.0 | 0.0 | 0.00 | 0.00 | 0.00 | 45 | 1014.8 | |
| 20260504025014 | 10 | 0.0 | 0.0 | 0.00 | 0.00 | 0.00 | 44 | 1014.6 | |
| 20260504024518 | 10 | 0.0 | 0.0 | 0.00 | 0.00 | 0.00 | 44 | 1014.7 | |
| 20260504024013 | 10 | 0.0 | 0.0 | 0.00 | 0.00 | 0.00 | 44 | 1014.6 | |
| 20260504023513 | 10 | 0.0 | 0.0 | 0.00 | 0.00 | 0.00 | 42 | 1014.6 | |
| 20260504023009 | 10 | 0.0 | 0.0 | 0.00 | 0.00 | 0.00 | 42 | 1014.6 | |
| 20260504022513 | 10 | 0.0 | 0.0 | 0.00 | 0.00 | 0.00 | 41 | 1014.5 | |
| 20260504022005 | 11 | 0.0 | 0.0 | 0.00 | 0.00 | 0.00 | 41 | 1014.6 | |
| 20260504021504 | 11 | 0.0 | 0.0 | 0.00 | 0.00 | 0.00 | 40 | 1014.6 | |
| 20260504021004 | 11 | 0.0 | 0.0 | 0.00 | 0.00 | 0.00 | 40 | 1014.5 | |
| 20260504020502 | 11 | 0.0 | 0.0 | 0.00 | 0.00 | 0.00 | 39 | 1014.5 | |
| 20260504020100 | 11 | 0.0 | 0.0 | 0.00 | 0.00 | 0.00 | 39 | 1014.5 | |
| 20260504015559 | 11 | 0.0 | 0.0 | 0.00 | 0.00 | 0.00 | 38 | 1014.5 | |
| 20260504015100 | 11 | 0.0 | 0.0 | 0.00 | 0.00 | 0.00 | 39 | 1014.5 | |
| 20260504014556 | 12 | 0.0 | 0.0 | 0.00 | 0.00 | 0.00 | 37 | 1014.5 | |
| 20260504014058 | 12 | 0.0 | 0.0 | 0.00 | 0.00 | 0.00 | 37 | 1014.5 | |
| 20260504013553 | 12 | 0.0 | 0.0 | 0.00 | 0.00 | 0.00 | 36 | 1014.4 | |
| 20260504013053 | 12 | 0.0 | 0.0 | 0.00 | 0.00 | 0.00 | 35 | 1014.4 | |
| 20260504012551 | 12 | 0.0 | 0.0 | 0.00 | 0.00 | 0.00 | 34 | 1014.4 | |
| 20260504012049 | 13 | 0.0 | 0.0 | 0.00 | 0.00 | 0.00 | 33 | 1014.4 | |
| 20260504011550 | 13 | 0.0 | 0.0 | 0.00 | 0.00 | 0.00 | 33 | 1014.3 | |
| 20260504011047 | 13 | 0.0 | 0.0 | 0.00 | 0.00 | 0.00 | 33 | 1014.3 |